Meteopurmerend
purmerend
Purmerend - Baaienwijk



My webcam  My webcam


Onweer radar Meer informatie blitzortung!


Regen radar Meer informatie rain snow radar


Bezoek onze andere website:

CandyAppleRed WebdesignWebdesign Purmerend Candy Apple Red

MeteopurmerendBlog

Template documentation
and downloads



We konden geen weer-waarchuwingen ophalen. Ga rechtstreeks naar de Meteoalarm site : www.meteoalarm.eu en controleer daar .

15 daagse weersverwachting Frederiksberg (DK)

  • Overzicht
  • Per uur
  • 15 dagen
  • Extra
  • Vergelijk
  • Kaarten
  • Dagkaart
  • Meer »
  • Info
  • Statistieken
  • Directe link
    Temp 6h Neerslag Wind  
 04:30     21:58    Daglengte: 17:28 Vandaag
08:00
20°
 
2
14:00
26°
 
4
20:00
23°
 
2
 04:30     21:57    Daglengte: 17:27 Morgen
02:00
19°
 
1
08:00
20°
 
3
14:00
28°
 
5
20:00
24°
 
6
 04:31     21:57    Daglengte: 17:26 Dinsdag 28 Jun
02:00
16°
6.0 mm
5
08:00
16°
8.9 mm
4
14:00
22°
 
4
20:00
21°
 
2
Locatie info
Region: Hovedstaden
Latitude: 55.6789°N
Longitude: 12.5298°E
15 masl
Postcode: 2000
Temp/Neerslag /Baro Onweer/Dauwpunt
    Temp Baro 1h Neerslag Dauwpunt Wind UV Bewolking  
 04:30     21:58    Daglengte: 17:28 Vandaag
05:00
18°
1013.8 hPa
18%
16.2°
3
Windvlaag: -1.9 m/s
60%
06:00
18°
1014.0 hPa
11%
15.9°
2
Windvlaag: -1.7 m/s
52%
07:00
19°
1014.2 hPa
11%
15.5°
2
Windvlaag: 0.1 m/s
15%
08:00
20°
1014.5 hPa
11%
15.8°
2
Windvlaag: 0 m/s
32%
09:00
21°
1014.5 hPa   16.2°
3
Windvlaag: 1 m/s
36%
10:00
22°
1014.5 hPa
22%
16.4°
3
Windvlaag: 4.3 m/s
38%
11:00
23°
1014.9 hPa
15%
17.1°
4
Windvlaag: 6 m/s
32%
12:00
24°
1015.1 hPa
11%
16.7°
4
Windvlaag: 6.8 m/s
28%
13:00
25°
1015.2 hPa   16.5°
4
Windvlaag: 6.6 m/s
36%
14:00
26°
1015.2 hPa   15.9°
4
Windvlaag: 7.5 m/s
53%
15:00
26°
1015.1 hPa   15.1°
4
Windvlaag: 7.5 m/s
62%
16:00
26°
1015.2 hPa   16.1°
4
Windvlaag: 7.8 m/s
61%
17:00
26°
1015.2 hPa   16.6°
4
Windvlaag: 8.3 m/s
66%
18:00
25°
1015.1 hPa   15.5°
4
Windvlaag: 8.7 m/s
72%
19:00
24°
1015.0 hPa   14.7°
3
Windvlaag: 6.9 m/s
61%
20:00
23°
1015.2 hPa
14%
15.5°
2
Windvlaag: 4.2 m/s
54%
21:00
23°
1015.2 hPa
15%
15.4°
2
Windvlaag: 4 m/s
51%
22:00
21°
1015.6 hPa
14%
15.5°
2
Windvlaag: 2.3 m/s
36%
23:00
20°
1015.7 hPa
61%
15.6°
1
Windvlaag: 2 m/s
33%
 04:30     21:57    Daglengte: 17:27 Morgen
00:00
20°
1015.8 hPa
17%
15.9°
1
Windvlaag: 1.6 m/s
42%
01:00
20°
1015.4 hPa
16%
16.4°
1
Windvlaag: -0.4 m/s
34%
02:00
19°
1015.0 hPa
14%
16.8°
1
Windvlaag: -0.2 m/s
13%
03:00
19°
1014.8 hPa
14%
17.0°
2
Windvlaag: -0.7 m/s
8%
04:00
18°
1014.9 hPa
14%
17.3°
2
Windvlaag: -1 m/s
13%
05:00
18°
1014.6 hPa
14%
16.8°
3
Windvlaag: -1.5 m/s
8%
06:00
18°
1014.5 hPa
14%
16.7°
3
Windvlaag: -1.3 m/s
17%
07:00
19°
1014.4 hPa
14%
16.4°
3
Windvlaag: -0.4 m/s
5%
08:00
20°
1014.4 hPa
14%
16.7°
3
Windvlaag: 0.2 m/s
6%
09:00
22°
1014.3 hPa
15%
16.9°
3
Windvlaag: 2.7 m/s
5%
10:00
24°
1014.1 hPa
14%
17.2°
3
Windvlaag: 3.3 m/s
4%
11:00
26°
1014.1 hPa
14%
17.1°
3
Windvlaag: 4.9 m/s
5%
12:00
27°
1013.8 hPa
14%
16.9°
4
Windvlaag: 8 m/s
7%
13:00
28°
1013.6 hPa
14%
17.2°
5
Windvlaag: 9.1 m/s
15%
14:00
28°
1013.2 hPa
14%
18.3°
5
Windvlaag: 9.7 m/s
17%
15:00
28°
1013.1 hPa
14%
18.2°
6
Windvlaag: 10.3 m/s
14%
16:00
28°
1012.8 hPa
14%
17.1°
6
Windvlaag: 10.8 m/s
70%
17:00
27°
1012.7 hPa
14%
15.9°
4
Windvlaag: 11.6 m/s
84%
18:00
26°
1012.4 hPa
14%
14.9°
4
Windvlaag: 7.6 m/s
40%
19:00
25°
1012.8 hPa
14%
13.5°
5
Windvlaag: -0.4 m/s
31%
20:00
24°
1013.5 hPa
56%
12.6°
6
Windvlaag: -2.3 m/s
44%
21:00
22°
1014.2 hPa
77%
12.3°
7
Windvlaag: -2.1 m/s
69%
22:00
20°
1014.6 hPa 1.2 mm
80%
11.9°
6
Windvlaag: -6.3 m/s
43%
23:00
18°
1015.5 hPa 1.0 mm
100%
14.8°
5
Windvlaag: -6.2 m/s
100%
 04:31     21:57    Daglengte: 17:26 Dinsdag 28 Jun
00:00
17°
1015.7 hPa 1.6 mm
100%
14.4°
5
Windvlaag: -4.6 m/s
100%
01:00
17°
1016.2 hPa 1.2 mm
100%
14.0°
5
Windvlaag: -3.9 m/s
100%
02:00
16°
1016.3 hPa 1.0 mm
100%
13.2°
5
Windvlaag: -3.5 m/s
100%
03:00
16°
1016.5 hPa 1.6 mm
100%
11.8°
5
Windvlaag: -4 m/s
95%
04:00
15°
1016.5 hPa 3.0 mm
100%
10.9°
4
Windvlaag: -3 m/s
98%
05:00
15°
1017.4 hPa 3.0 mm
100%
10.8°
4
Windvlaag: -1.2 m/s
97%
06:00
15°
1017.4 hPa 1.3 mm
100%
9.4°
4
Windvlaag: -0.7 m/s
80%
07:00
15°
1018.4 hPa
93%
10.3°
4
Windvlaag: -0.4 m/s
71%
08:00
16°
1018.1 hPa
35%
10.8°
4
Windvlaag: 6.7 m/s
99%
09:00
17°
1018.3 hPa
21%
9.2°
4
Windvlaag: 7.9 m/s
30%
10:00
19°
1018.8 hPa
21%
7.2°
4
Windvlaag: 7.3 m/s
6%
11:00
20°
1019.2 hPa
21%
6.8°
4
Windvlaag: 7.4 m/s
0%
12:00
21°
1019.5 hPa
21%
7.3°
4
Windvlaag: 6.6 m/s
0%
13:00
22°
1019.7 hPa
21%
7.7°
4
Windvlaag: 5.7 m/s
6%
14:00
22°
1019.8 hPa
21%
8.1°
4
Windvlaag: 4.5 m/s
12%
15:00
22°
1019.7 hPa
21%
7.7°
4
Windvlaag: 4 m/s
13%
16:00
23°
1019.8 hPa
21%
7.2°
3
Windvlaag: 4.1 m/s
9%
17:00
23°
1019.8 hPa
21%
5.9°
3
Windvlaag: 4.4 m/s
5%
18:00
22°
1019.8 hPa
21%
6.1°
3
Windvlaag: 4 m/s
5%
19:00
22°
1019.5 hPa
21%
6.9°
3
Windvlaag: 3.8 m/s
6%
20:00
21°
1019.7 hPa
21%
7.4°
2
Windvlaag: 3.3 m/s
9%
21:00
20°
1019.9 hPa
21%
8.0°
2
Windvlaag: 2.9 m/s
10%
22:00
19°
1020.2 hPa
21%
8.3°
1
Windvlaag: 2.3 m/s
11%
23:00
18°
1020.2 hPa
21%
8.4°
1
Windvlaag: 1.6 m/s
35%
 04:32     21:57    Daglengte: 17:25 Woensdag 29 Jun
00:00
17°
1020.2 hPa
21%
8.3°
1
Windvlaag: 1.1 m/s
6%
01:00
16°
1020.1 hPa
21%
8.5°
1
Windvlaag: 1.5 m/s
4%
02:00
16°
1019.9 hPa
21%
8.6°
1
Windvlaag: 1.1 m/s
1%
03:00
15°
1021.0 hPa   -36.7°
1
Windvlaag: 3 m/s
0%
Temp/Neerslag /Baro Onweer/Dauwpunt
    Temp Baro Neerslag Dauwpunt Wind Bewolking  
 04:30     21:58    Daglengte: 17:28 Vandaag
05:00
18°
1013.8 hPa   16.2°
3
60%
08:00
20°
1014.5 hPa   15.8°
2
32%
11:00
23°
1014.9 hPa   17.1°
4
32%
14:00
26°
1015.2 hPa   15.9°
4
53%
17:00
26°
1015.2 hPa   16.6°
4
66%
20:00
23°
1015.2 hPa   15.5°
2
54%
23:00
20°
1015.7 hPa   15.6°
1
33%
 04:30     21:57    Daglengte: 17:27 Morgen
02:00
19°
1015.0 hPa   16.8°
1
13%
05:00
18°
1014.6 hPa   16.8°
3
8%
08:00
20°
1014.4 hPa   16.7°
3
6%
11:00
26°
1014.1 hPa   17.1°
3
5%
14:00
28°
1013.2 hPa   18.3°
5
17%
17:00
27°
1012.7 hPa   15.9°
4
84%
20:00
24°
1013.5 hPa   12.6°
6
44%
23:00
18°
1015.5 hPa 2.2 mm 14.8°
5
100%
 04:31     21:57    Daglengte: 17:26 Dinsdag 28 Jun
02:00
16°
1016.3 hPa 3.8 mm 13.2°
5
100%
05:00
15°
1017.4 hPa 7.6 mm 10.8°
4
97%
08:00
16°
1018.1 hPa 1.3 mm 10.8°
4
99%
11:00
20°
1019.2 hPa   6.8°
4
0%
14:00
22°
1019.8 hPa   8.1°
4
12%
17:00
23°
1019.8 hPa   5.9°
3
5%
20:00
21°
1019.7 hPa   7.4°
2
9%
23:00
18°
1020.2 hPa   8.4°
1
35%
 04:32     21:57    Daglengte: 17:25 Woensdag 29 Jun
02:00
16°
1019.9 hPa   8.6°
1
1%
05:00
15°
1021.0 hPa 15.2 mm -8.7°
1
0%
08:00
16°
1021.0 hPa 15.2 mm -10.1°
2
0%
11:00
20°
1021.3 hPa 15.2 mm -12.2°
2
8%
14:00
23°
1020.0 hPa 15.2 mm -13.1°
1
23%
17:00
23°
1019.5 hPa 15.2 mm -8.4°
2
16%
20:00
21°
1018.6 hPa 15.2 mm -6.6°
1
9%
23:00
18°
1019.0 hPa 15.2 mm -6.0°
1
8%
 04:32     21:57    Daglengte: 17:25 Donderdag 30 Jun
02:00
17°
1018.5 hPa 15.2 mm -6.9°
3
2%
05:00
16°
1017.2 hPa 15.2 mm -6.7°
3
13%
08:00
17°
1017.1 hPa 15.2 mm -7.4°
4
16%
11:00
19°
1016.7 hPa 15.2 mm -6.8°
5
15%
14:00
19°
1015.9 hPa 7.8 mm -5.2°
4
22%
17:00
19°
1015.0 hPa 15.3 mm -4.6°
3
26%
20:00
19°
1013.8 hPa 15.3 mm -3.7°
3
26%
23:00
18°
1012.8 hPa 15.3 mm -2.8°
2
26%
 04:33     21:56    Daglengte: 17:23 Vrijdag 01 Jul
02:00
18°
1012.1 hPa 15.3 mm -2.6°
1
24%
05:00
18°
1011.1 hPa 15.3 mm -3.0°
2
16%
08:00
20°
1011.0 hPa 15.3 mm -3.9°
3
23%
11:00
22°
1010.7 hPa 15.3 mm -4.9°
2
25%
14:00
21°
1010.3 hPa 9.6 mm -2.3°
3
26%
17:00
20°
1011.2 hPa 11.8 mm -2.0°
3
26%
20:00
19°
1011.0 hPa 12.1 mm -2.1°
3
22%
23:00
17°
1013.2 hPa 11.7 mm -3.9°
5
22%
 04:34     21:56    Daglengte: 17:22 Zaterdag 02 Jul
02:00
16°
1014.1 hPa 11.5 mm -5.8°
6
15%
05:00
14°
1015.4 hPa 22.7 mm 13.0°
4
0%
08:00
17°
1016.7 hPa 22.7 mm 11.2°
5
0%
11:00
19°
1017.0 hPa 22.7 mm 9.7°
5
1%
14:00
18°
1018.1 hPa 22.9 mm 8.9°
4
1%
17:00
21°
1016.9 hPa 22.9 mm 7.8°
4
0%
20:00
19°
1016.9 hPa 22.9 mm 11.6°
4
0%
23:00
16°
1017.2 hPa 22.9 mm 12.0°
4
0%
 04:35     21:55    Daglengte: 17:20 Zondag 03 Jul
02:00
15°
1017.2 hPa 45.8 mm 11.6°
4
0%
08:00
18°
1015.7 hPa 46.2 mm 12.3°
7
1%
14:00
21°
1014.8 hPa 47.4 mm 11.9°
9
0%
20:00
19°
1013.4 hPa 50.0 mm 11.6°
6
1%
 04:36     21:54    Daglengte: 17:18 Maandag 04 Jul
02:00
14°
1012.9 hPa 50.3 mm 11.2°
5
1%
08:00
15°
1010.8 hPa 51.0 mm 12.0°
7
0%
14:00
18°
1009.2 hPa 54.0 mm 11.1°
9
1%
20:00
17°
1010.8 hPa 57.0 mm 10.1°
9
0%
 04:37     21:54    Daglengte: 17:17 Dinsdag 05 Jul
02:00
15°
1012.0 hPa 57.4 mm 9.5°
9
1%
08:00
15°
1012.8 hPa 58.0 mm 10.7°
9
1%
14:00
18°
1015.0 hPa 58.4 mm 10.5°
9
1%
20:00
18°
1015.5 hPa 58.8 mm 12.1°
8
1%
 04:38     21:53    Daglengte: 17:15 Woensdag 06 Jul
02:00
16°
1016.6 hPa 0.3 mm 12.3°
4
46%
08:00
16°
1016.6 hPa 0.2 mm 12.5°
3
60%
14:00
19°
1016.8 hPa 0.4 mm 12.9°
3
58%
20:00
19°
1016.0 hPa 0.4 mm 13.6°
3
55%
 04:39     21:52    Daglengte: 17:13 Donderdag 07 Jul
02:00
16°
1015.9 hPa 0.2 mm 12.8°
2
50%
08:00
17°
1015.5 hPa 0.3 mm 12.9°
2
50%
14:00
19°
1015.6 hPa 0.6 mm 13.4°
3
56%
20:00
19°
1015.0 hPa 0.7 mm 14.0°
2
52%
 04:40     21:51    Daglengte: 17:11 Vrijdag 08 Jul
02:00
16°
1015.3 hPa 0.6 mm 12.8°
2
51%
08:00
16°
1014.9 hPa 1.0 mm 13.1°
3
59%
14:00
19°
1014.9 hPa 0.3 mm 13.3°
3
68%
20:00
19°
1014.4 hPa 0.7 mm 13.6°
3
52%
 04:41     21:50    Daglengte: 17:09 Zaterdag 09 Jul
02:00
16°
1014.7 hPa 0.6 mm 12.6°
3
47%
08:00
16°
1014.6 hPa 0.3 mm 12.5°
3
51%
14:00
19°
1014.2 hPa 0.6 mm 12.9°
4
49%
20:00
19°
1013.3 hPa 0.3 mm 13.3°
3
52%
 04:43     21:49    Daglengte: 17:06 Zondag 10 Jul
02:00
16°
1013.1 hPa 0.3 mm 12.7°
2
40%
08:00
17°
1012.5 hPa 0.3 mm 12.9°
3
57%
14:00
19°
1012.3 hPa 0.2 mm 12.9°
3
60%
20:00
18°
1011.9 hPa 0.8 mm 13.0°
3
52%
 04:44     21:48    Daglengte: 17:04 Maandag 11 Jul
02:00
16°
1012.1 hPa 0.7 mm 12.3°
4
37%
  CAPE Lifted Index Hail Supercell Tornado SRH 3km CL BTM PRES CL TOP PRES Swiss DWD icon SMHI TS
 04:30     21:58    Daglengte: 17:28 Vandaag
05:00 0 J/kg -2.7 K 0 % 0 % 0 % 0 m²/s² 0 0 -2.04 3
06:00 0 J/kg -3.2 K 0 % 0 % 0 % 0 m²/s² 0 0 -2.24 3
07:00 0 J/kg -2.7 K 0 % 0 % 0 % 0 m²/s² 0 0 -2.04 2
08:00 0 J/kg -2.5 K 0 % 0 % 0 % 0 m²/s² 0 0 -1.93 2
09:00 19 J/kg -2.6 K 0 % 0 % 0 % 0 m²/s² 0 0 -2.15 3
10:00 170 J/kg -2.8 K 0 % 0 % 0 % 0 m²/s² 0 0 -2.26 3
11:00 239 J/kg -2.9 K 0 % 0 % 0 % 0 m²/s² 0 0 -1.85 3
12:00 328 J/kg -2.9 K 0 % 0 % 0 % 0 m²/s² 0 0 -1.64 3
13:00 430 J/kg -2.8 K 0 % 0 % 0 % 0 m²/s² 0 0 -1.63 3
14:00 268 J/kg -2.0 K 0 % 0 % 0 % 0 m²/s² 0 0 -0.62 3
15:00 94 J/kg -1.4 K 0 % 0 % 0 % 0 m²/s² 0 0 0.43 3
16:00 36 J/kg -0.8 K 0 % 0 % 0 % 0 m²/s² 0 0 0.85 3
17:00 36 J/kg -0.2 K 0 % 0 % 0 % 0 m²/s² 0 0 0.07 3
18:00 97 J/kg -0.8 K 0 % 0 % 0 % 0 m²/s² 0 0 -0.05 3
19:00 84 J/kg -0.8 K 0 % 0 % 0 % 0 m²/s² 0 0 -0.77 3
20:00 0 J/kg -0.3 K 0 % 0 % 0 % 0 m²/s² 0 0 0.06 3
21:00 0 J/kg -0.2 K 0 % 0 % 0 % 0 m²/s² 0 0 0.76 3
22:00 0 J/kg -0.4 K 0 % 0 % 0 % 0 m²/s² 0 0 0.35 3
23:00 0 J/kg -1.1 K 0 % 0 % 0 % 0 m²/s² 0 0 -0.62 3
 04:30     21:57    Daglengte: 17:27 Morgen
00:00 0 J/kg -2.0 K 0 % 0 % 0 % 0 m²/s² 0 0 -1.55 3
01:00 0 J/kg -1.8 K 0 % 0 % 0 % 0 m²/s² 0 0 -0.42 3
02:00 0 J/kg -2.1 K 0 % 0 % 0 % 0 m²/s² 0 0 -0.78 1
03:00 0 J/kg -2.2 K 0 % 0 % 0 % 0 m²/s² 0 0 -0.46 1
04:00 0 J/kg -2.7 K 0 % 0 % 0 % 0 m²/s² 0 0 -1.08 1
05:00 0 J/kg -3.0 K 0 % 0 % 0 % 0 m²/s² 0 0 -1.56 0
06:00 0 J/kg -2.6 K 0 % 0 % 0 % 0 m²/s² 0 0 -0.98 2
07:00 0 J/kg -2.2 K 0 % 0 % 0 % 0 m²/s² 0 0 -0.64 0
08:00 0 J/kg -1.7 K 0 % 0 % 0 % 0 m²/s² 0 0 -0.14 1
09:00 118 J/kg -1.2 K 0 % 0 % 0 % 0 m²/s² 0 0 0.6 1
10:00 577 J/kg -1.9 K 0 % 0 % 0 % 0 m²/s² 0 0 0.5 1
11:00 554 J/kg -2.0 K 0 % 0 % 0 % 0 m²/s² 0 0 0.13 2
12:00 390 J/kg -1.7 K 0 % 0 % 0 % 0 m²/s² 0 0 0.43 0
13:00 366 J/kg -1.7 K 0 % 0 % 0 % 0 m²/s² 0 0 0.58 2
14:00 503 J/kg -2.0 K 0 % 0 % 0 % 0 m²/s² 0 0 0.34 2
15:00 588 J/kg -2.0 K 0 % 0 % 0 % 0 m²/s² 0 0 -1.04 0
16:00 632 J/kg -2.7 K 0 % 0 % 0 % 0 m²/s² 0 0 -1.89 3
17:00 176 J/kg -2.2 K 0 % 0 % 0 % 0 m²/s² 0 0 -1.09 3
18:00 167 J/kg -3.1 K 0 % 0 % 0 % 0 m²/s² 0 0 -1.03 3
19:00 1100 J/kg -3.6 K 0 % 0 % 0 % 0 m²/s² 0 0 -0.96 3
20:00 1101 J/kg -3.5 K 0 % 0 % 0 % 0 m²/s² 0 0 -0.77 3
21:00 0 J/kg -1.6 K 0 % 0 % 0 % 0 m²/s² 0 0 0.41 3
22:00 2 J/kg 0.6 K 0 % 0 % 0 % 0 m²/s² 0 0 2.16 80
23:00 0 J/kg 1.4 K 0 % 0 % 0 % 0 m²/s² 0 0 2.78 80
 04:31     21:57    Daglengte: 17:26 Dinsdag 28 Jun
00:00 1 J/kg 2.4 K 0 % 0 % 0 % 0 m²/s² 0 0 3.48 3
01:00 3 J/kg 4.5 K 0 % 0 % 0 % 0 m²/s² 0 0 5.46 80
02:00 0 J/kg 5.0 K 0 % 0 % 0 % 0 m²/s² 0 0 5.3 80
03:00 0 J/kg 5.4 K 0 % 0 % 0 % 0 m²/s² 0 0 5.7 80
04:00 0 J/kg 5.5 K 0 % 0 % 0 % 0 m²/s² 0 0 6.25 81
05:00 0 J/kg 6.2 K 0 % 0 % 0 % 0 m²/s² 0 0 7.01 63
06:00 0 J/kg 8.4 K 0 % 0 % 0 % 0 m²/s² 0 0 9.21 80
07:00 0 J/kg 8.6 K 0 % 0 % 0 % 0 m²/s² 0 0 11.39 3
08:00 0 J/kg 8.6 K 0 % 0 % 0 % 0 m²/s² 0 0 12.86 3
09:00 0 J/kg 8.7 K 0 % 0 % 0 % 0 m²/s² 0 0 14.19 2
10:00 0 J/kg 8.5 K 0 % 0 % 0 % 0 m²/s² 0 0 14.62 1
11:00 0 J/kg 8.8 K 0 % 0 % 0 % 0 m²/s² 0 0 16.42 1
12:00 0 J/kg 9.1 K 0 % 0 % 0 % 0 m²/s² 0 0 17.32 1
13:00 1 J/kg 9.1 K 0 % 0 % 0 % 0 m²/s² 0 0 18.01 1
14:00 6 J/kg 9.0 K 0 % 0 % 0 % 0 m²/s² 0 0 18.3 0
15:00 13 J/kg 9.3 K 0 % 0 % 0 % 0 m²/s² 0 0 18.24 0
16:00 4 J/kg 9.6 K 0 % 0 % 0 % 0 m²/s² 0 0 18.99 0
17:00 1 J/kg 10.0 K 0 % 0 % 0 % 0 m²/s² 0 0 19.45 0
18:00 1 J/kg 10.0 K 0 % 0 % 0 % 0 m²/s² 0 0 19.96 0
19:00 1 J/kg 9.5 K 0 % 0 % 0 % 0 m²/s² 0 0 19.52 0
20:00 0 J/kg 9.0 K 0 % 0 % 0 % 0 m²/s² 0 0 19.08 0
21:00 0 J/kg 8.3 K 0 % 0 % 0 % 0 m²/s² 0 0 18.86 0
22:00 0 J/kg 7.6 K 0 % 0 % 0 % 0 m²/s² 0 0 17.68 1
23:00 0 J/kg 7.6 K 0 % 0 % 0 % 0 m²/s² 0 0 16.81 3
 04:32     21:57    Daglengte: 17:25 Woensdag 29 Jun
00:00 0 J/kg 7.8 K 0 % 0 % 0 % 0 m²/s² 0 0 16.02 1
01:00 0 J/kg 8.2 K 0 % 0 % 0 % 0 m²/s² 0 0 15.82 1
02:00 0 J/kg 8.2 K 0 % 0 % 0 % 0 m²/s² 0 0 15.1 1
03:00 0 J/kg 0.0 K 0 % 0 % 0 % 0 m²/s² 0 0 13.83
Temp Baro Wind Neerslag
  EWN Forecast EWN WRFDA DWD ICON FMI HIRLAM MET Norway GFSWXSIM
 04:30     21:58    Daglengte: 17:28 Vandaag
05:00 17.9° 1013.8 hPa 2.9 m/s 0.0 mm 16.8° 1013.5 hPa 2.8 m/s 0.0 mm 18.5° 1014.1 hPa 1.7 m/s -2.0 mm 16.9° 1013.8 hPa 3.0 m/s 0.0 mm 17.1° 1013.7 hPa 2.0 m/s 18.8° 1013.0 hPa 2.0 m/s 0.3 mm
08:00 19.8° 1014.5 hPa 2.2 m/s 0.0 mm 20.5° 1014.1 hPa 3.1 m/s 0.0 mm 20.2° 1015.0 hPa 1.8 m/s 0.0 mm 19.8° 1014.2 hPa 3.7 m/s 0.0 mm 18.7° 1014.6 hPa 3.5 m/s 20.0° 1014.0 hPa 3.0 m/s 0.5 mm
11:00 23.3° 1014.9 hPa 4.0 m/s 0.0 mm 24.4° 1014.6 hPa 4.0 m/s 0.0 mm 23.2° 1015.4 hPa 2.1 m/s 0.0 mm 22.7° 1014.9 hPa 6.0 m/s 0.0 mm 22.4° 1015.1 hPa 3.8 m/s 22.5° 1015.0 hPa 4.0 m/s 0.5 mm
14:00 25.8° 1015.2 hPa 4.3 m/s 0.0 mm 27.0° 1014.6 hPa 5.0 m/s 0.0 mm 26.0° 1015.3 hPa 2.6 m/s 0.0 mm 24.9° 1015.3 hPa 4.9 m/s 0.0 mm 23.7° 1015.2 hPa 4.3 m/s 27.3° 1015.0 hPa 4.0 m/s 0.0 mm
17:00 26.1° 1015.2 hPa 4.3 m/s 0.0 mm 27.9° 1014.3 hPa 5.2 m/s 0.0 mm 24.7° 1015.4 hPa 2.5 m/s 0.0 mm 26.0° 1015.4 hPa 4.9 m/s 0.0 mm 23.5° 1015.3 hPa 3.8 m/s 26.3° 1015.0 hPa 4.0 m/s 0.7 mm
20:00 23.3° 1015.2 hPa 1.9 m/s 0.0 mm 23.7° 1014.6 hPa 0.8 m/s 0.6 mm 22.5° 1015.4 hPa 1.6 m/s 0.0 mm 23.6° 1015.3 hPa 3.6 m/s 0.0 mm 19.8° 1016.1 hPa 2.3 m/s 22.2° 1016.0 hPa 2.0 m/s 1.6 mm
23:00 20.4° 1015.7 hPa 0.9 m/s 0.0 mm 22.5° 1014.3 hPa 2.6 m/s 2.0 mm 19.8° 1016.0 hPa 0.7 m/s 0.0 mm 20.2° 1016.2 hPa 1.3 m/s 0.0 mm 18.7° 1017.0 hPa 1.5 m/s 20.5° 1016.0 hPa 1.0 m/s 1.0 mm
 04:30     21:57    Daglengte: 17:27 Morgen
02:00 19.2° 1015.0 hPa 1.4 m/s 0.0 mm 20.6° 1014.1 hPa 1.5 m/s 2.1 mm 19.2° 1015.0 hPa 1.2 m/s 0.0 mm 18.1° 1016.0 hPa 1.8 m/s 0.0 mm 18.0° 1016.1 hPa 2.5 m/s 19.8° 1016.0 hPa 2.0 m/s 0.0 mm
05:00 18.2° 1014.6 hPa 2.6 m/s 0.0 mm 19.0° 1013.6 hPa 2.1 m/s 2.1 mm 18.0° 1014.8 hPa 1.4 m/s 0.0 mm 17.1° 1015.3 hPa 2.8 m/s 0.0 mm 17.7° 1015.7 hPa 3.0 m/s 19.0° 1015.0 hPa 2.0 m/s 0.0 mm
08:00 20.4° 1014.4 hPa 2.6 m/s 0.0 mm 22.0° 1012.9 hPa 2.7 m/s 2.1 mm 20.3° 1014.7 hPa 1.8 m/s 0.0 mm 19.1° 1015.1 hPa 4.0 m/s 0.0 mm 20.1° 1014.8 hPa 2.8 m/s 21.7° 1015.0 hPa 3.0 m/s 0.2 mm
11:00 25.8° 1014.1 hPa 3.3 m/s 0.0 mm 27.4° 1012.0 hPa 5.8 m/s 2.1 mm 25.4° 1014.7 hPa 3.0 m/s 0.0 mm 25.5° 1014.3 hPa 3.8 m/s 0.0 mm 23.6° 1014.7 hPa 4.9 m/s 25.4° 1015.0 hPa 4.0 m/s 0.0 mm
14:00 28.0° 1013.2 hPa 5.0 m/s 0.0 mm 28.2° 1011.0 hPa 7.6 m/s 2.1 mm 28.3° 1013.9 hPa 3.5 m/s 0.0 mm 26.0° 1013.5 hPa 6.3 m/s 0.0 mm 23.3° 1014.1 hPa 5.6 m/s 28.6° 1014.0 hPa 5.0 m/s 0.0 mm
17:00 27.0° 1012.7 hPa 4.0 m/s 0.0 mm 26.2° 1010.3 hPa 6.6 m/s 3.6 mm 27.1° 1013.4 hPa 3.0 m/s 0.0 mm 28.2° 1012.3 hPa 8.3 m/s 0.0 mm 24.3° 1013.5 hPa 4.6 m/s 27.8° 1013.0 hPa 5.0 m/s 0.0 mm
20:00 23.9° 1013.5 hPa 6.3 m/s 0.0 mm 25.4° 1012.2 hPa 5.1 m/s 7.2 mm 23.9° 1014.0 hPa 1.9 m/s 0.0 mm 26.6° 1011.4 hPa 8.5 m/s 0.0 mm 21.2° 1014.3 hPa 2.7 m/s 21.7° 1014.0 hPa 3.0 m/s 1.3 mm
23:00 17.8° 1015.5 hPa 4.8 m/s 2.2 mm 17.6° 1014.4 hPa 5.2 m/s 7.4 mm 20.0° 1015.4 hPa 2.5 m/s 0.6 mm 18.6° 1016.2 hPa 2.7 m/s 18.9° 1015.0 hPa 3.0 m/s 4.3 mm
 04:31     21:57    Daglengte: 17:26 Dinsdag 28 Jun
02:00 16.0° 1016.3 hPa 5.3 m/s 3.8 mm 15.8° 1016.5 hPa 6.3 m/s 7.4 mm 17.6° 1015.2 hPa 3.3 m/s 1.5 mm 17.6° 1016.1 hPa 2.9 m/s 18.6° 1016.0 hPa 3.0 m/s 4.6 mm
05:00 14.9° 1017.4 hPa 4.2 m/s 7.6 mm 15.0° 1017.4 hPa 4.9 m/s 7.4 mm 15.2° 1016.5 hPa 4.2 m/s 7.7 mm 15.9° 1017.6 hPa 4.9 m/s 18.2° 1017.0 hPa 4.0 m/s 3.0 mm
08:00 15.9° 1018.1 hPa 3.5 m/s 1.3 mm 16.3° 1019.0 hPa 3.4 m/s 7.4 mm 15.9° 1017.8 hPa 3.5 m/s 0.7 mm 15.7° 1019.3 hPa 4.7 m/s 18.4° 1019.0 hPa 5.0 m/s 0.5 mm
11:00 19.8° 1019.2 hPa 4.3 m/s 0.0 mm 20.4° 1019.0 hPa 5.9 m/s 7.4 mm 19.7° 1019.3 hPa 3.9 m/s 0.0 mm 18.8° 1020.4 hPa 3.9 m/s 20.4° 1020.0 hPa 4.0 m/s 0.0 mm
14:00 22.1° 1019.8 hPa 3.9 m/s 0.0 mm 22.0° 1020.1 hPa 4.2 m/s 7.4 mm 22.1° 1019.7 hPa 3.8 m/s 0.0 mm 20.2° 1021.0 hPa 3.3 m/s 22.7° 1020.0 hPa 3.0 m/s 0.0 mm
17:00 22.7° 1019.8 hPa 3.3 m/s 0.0 mm 22.7° 1019.9 hPa 3.9 m/s 7.4 mm 22.7° 1019.8 hPa 3.2 m/s 0.0 mm 20.5° 1021.1 hPa 1.4 m/s 23.8° 1021.0 hPa 2.0 m/s 0.0 mm
20:00 21.2° 1019.7 hPa 2.3 m/s 0.0 mm 21.5° 1019.6 hPa 2.8 m/s 7.4 mm 21.2° 1019.7 hPa 2.2 m/s 0.0 mm 19.5° 1021.1 hPa 0.6 m/s 22.7° 1021.0 hPa 1.0 m/s 0.0 mm
23:00 17.8° 1020.2 hPa 1.3 m/s 0.0 mm 18.8° 1020.9 hPa 1.4 m/s 7.4 mm 17.5° 1020.0 hPa 1.3 m/s 0.0 mm 16.8° 1021.8 hPa 0.8 m/s 17.9° 1021.0 hPa 0.0 m/s 0.0 mm
 04:32     21:57    Daglengte: 17:25 Woensdag 29 Jun
02:00 16.0° 1019.9 hPa 1.2 m/s 0.0 mm 17.2° 1020.9 hPa 1.1 m/s 7.4 mm 15.7° 1019.7 hPa 1.2 m/s 0.0 mm 16.0° 1021.6 hPa 1.5 m/s 15.4° 1021.0 hPa 1.0 m/s 0.0 mm
05:00 14.5° 1021.0 hPa 1.1 m/s 15.2 mm 15.2° 1021.2 hPa 1.4 m/s 15.2 mm 14.3° 1021.0 hPa 1.0 m/s 0.0 mm
08:00 16.4° 1021.0 hPa 2.0 m/s 15.2 mm 17.4° 1021.2 hPa 2.0 m/s 15.2 mm 16.1° 1021.0 hPa 2.0 m/s 0.0 mm
11:00 19.9° 1021.3 hPa 1.9 m/s 15.2 mm 20.2° 1021.0 hPa 1.9 m/s 15.2 mm 19.8° 1022.0 hPa 2.0 m/s 0.0 mm
14:00 22.8° 1020.0 hPa 1.1 m/s 15.2 mm 22.5° 1020.1 hPa 1.3 m/s 15.2 mm 23.4° 1020.0 hPa 1.0 m/s 0.0 mm
17:00 22.9° 1019.5 hPa 2.4 m/s 15.2 mm 22.5° 1019.3 hPa 3.4 m/s 15.2 mm 24.2° 1020.0 hPa 2.0 m/s 0.0 mm
20:00 20.8° 1018.6 hPa 1.1 m/s 15.2 mm 20.1° 1018.5 hPa 1.4 m/s 15.2 mm 22.9° 1019.0 hPa 1.0 m/s 0.0 mm
23:00 18.2° 1019.0 hPa 1.3 m/s 15.2 mm 17.8° 1019.0 hPa 2.1 m/s 15.2 mm 19.2° 1019.0 hPa 1.0 m/s 0.0 mm
 04:32     21:57    Daglengte: 17:25 Donderdag 30 Jun
02:00 16.5° 1018.5 hPa 3.1 m/s 15.2 mm 16.2° 1018.4 hPa 3.3 m/s 15.2 mm 17.4° 1019.0 hPa 3.0 m/s 0.0 mm
05:00 16.2° 1017.2 hPa 3.3 m/s 15.2 mm 16.1° 1017.7 hPa 4.2 m/s 15.2 mm 16.5° 1017.0 hPa 3.0 m/s 0.0 mm
08:00 17.2° 1017.1 hPa 4.2 m/s 15.2 mm 16.6° 1017.2 hPa 5.0 m/s 15.2 mm 18.9° 1017.0 hPa 4.0 m/s 0.0 mm
11:00 18.6° 1016.7 hPa 5.1 m/s 15.2 mm 17.2° 1016.6 hPa 5.3 m/s 15.2 mm 22.7° 1017.0 hPa 5.0 m/s 0.0 mm
14:00 19.2° 1015.9 hPa 3.7 m/s 7.8 mm 17.4° 1015.9 hPa 3.6 m/s 15.2 mm 24.7° 1016.0 hPa 4.0 m/s 0.3 mm
17:00 19.1° 1015.0 hPa 3.1 m/s 15.3 mm 17.3° 1014.9 hPa 3.3 m/s 15.3 mm 24.5° 1015.0 hPa 3.0 m/s 0.0 mm
20:00 18.7° 1013.8 hPa 2.8 m/s 15.3 mm 17.3° 1013.8 hPa 2.7 m/s 15.3 mm 22.8° 1014.0 hPa 3.0 m/s 0.0 mm
23:00 18.3° 1012.8 hPa 2.0 m/s 15.3 mm 17.6° 1012.8 hPa 2.1 m/s 15.3 mm 20.6° 1013.0 hPa 2.0 m/s 0.0 mm
 04:33     21:56    Daglengte: 17:23 Vrijdag 01 Jul
02:00 18.4° 1012.1 hPa 1.1 m/s 15.3 mm 18.0° 1012.3 hPa 1.3 m/s 15.3 mm 19.7° 1012.0 hPa 1.0 m/s 0.0 mm
05:00 17.8° 1011.1 hPa 2.1 m/s 15.3 mm 17.5° 1011.3 hPa 2.6 m/s 15.3 mm 18.9° 1011.0 hPa 2.0 m/s 0.0 mm
08:00 19.5° 1011.0 hPa 2.7 m/s 15.3 mm 19.1° 1011.2 hPa 2.6 m/s 15.3 mm 21.0° 1011.0 hPa 3.0 m/s 0.0 mm
11:00 21.6° 1010.7 hPa 2.0 m/s 15.3 mm 21.1° 1010.6 hPa 2.1 m/s 15.3 mm 22.9° 1011.0 hPa 2.0 m/s 0.0 mm
14:00 20.9° 1010.3 hPa 3.1 m/s 9.6 mm 20.3° 1011.1 hPa 3.3 m/s 17.4 mm 22.7° 1010.0 hPa 3.0 m/s 1.8 mm
17:00 19.6° 1011.2 hPa 3.2 m/s 11.8 mm 19.3° 1011.7 hPa 3.9 m/s 20.3 mm 20.6° 1011.0 hPa 3.0 m/s 3.3 mm
20:00 19.3° 1011.0 hPa 3.1 m/s 12.1 mm 19.3° 1011.1 hPa 3.2 m/s 22.0 mm 19.5° 1011.0 hPa 3.0 m/s 2.3 mm
23:00 17.4° 1013.2 hPa 5.4 m/s 11.7 mm 17.1° 1013.8 hPa 6.7 m/s 22.6 mm 18.1° 1013.0 hPa 5.0 m/s 0.7 mm
 04:34     21:56    Daglengte: 17:22 Zaterdag 02 Jul
02:00 16.1° 1014.1 hPa 5.7 m/s 11.5 mm 15.9° 1014.5 hPa 5.6 m/s 22.7 mm 16.9° 1014.0 hPa 6.0 m/s 0.3 mm
05:00 14.5° 1015.4 hPa 4.4 m/s 22.7 mm 14.5° 1015.4 hPa 4.4 m/s 22.7 mm
08:00 16.9° 1016.7 hPa 5.2 m/s 22.7 mm 16.9° 1016.7 hPa 5.2 m/s 22.7 mm
11:00 19.5° 1017.0 hPa 5.0 m/s 22.7 mm 19.5° 1017.0 hPa 5.0 m/s 22.7 mm
14:00 18.3° 1018.1 hPa 4.2 m/s 22.9 mm 18.3° 1018.1 hPa 4.2 m/s 22.9 mm
17:00 20.9° 1016.9 hPa 4.0 m/s 22.9 mm 20.9° 1016.9 hPa 4.0 m/s 22.9 mm
20:00 19.2° 1016.9 hPa 4.3 m/s 22.9 mm 19.2° 1016.9 hPa 4.3 m/s 22.9 mm
23:00 16.2° 1017.2 hPa 4.3 m/s 22.9 mm 16.2° 1017.2 hPa 4.3 m/s 22.9 mm
 04:35     21:55    Daglengte: 17:20 Zondag 03 Jul
02:00 15.2° 1017.2 hPa 3.8 m/s 22.9 mm 15.2° 1017.2 hPa 3.8 m/s 22.9 mm
08:00 17.8° 1015.7 hPa 6.6 m/s 23.2 mm 17.8° 1015.7 hPa 6.6 m/s 23.2 mm
14:00 20.6° 1014.8 hPa 8.6 m/s 24.1 mm 20.6° 1014.8 hPa 8.6 m/s 24.1 mm
20:00 18.7° 1013.4 hPa 5.8 m/s 25.1 mm 18.7° 1013.4 hPa 5.8 m/s 25.1 mm
 04:36     21:54    Daglengte: 17:18 Maandag 04 Jul
02:00 14.1° 1012.9 hPa 4.8 m/s 25.2 mm 14.1° 1012.9 hPa 4.8 m/s 25.2 mm
08:00 14.6° 1010.8 hPa 6.5 m/s 25.8 mm 14.6° 1010.8 hPa 6.5 m/s 25.8 mm
14:00 18.2° 1009.2 hPa 9.1 m/s 27.6 mm 18.2° 1009.2 hPa 9.1 m/s 27.6 mm
20:00 17.1° 1010.8 hPa 8.5 m/s 28.5 mm 17.1° 1010.8 hPa 8.5 m/s 28.5 mm
 04:37     21:54    Daglengte: 17:17 Dinsdag 05 Jul
02:00 14.8° 1012.0 hPa 8.7 m/s 28.8 mm 14.8° 1012.0 hPa 8.7 m/s 28.8 mm
08:00 15.3° 1012.8 hPa 9.2 m/s 29.1 mm 15.3° 1012.8 hPa 9.2 m/s 29.1 mm
14:00 17.8° 1015.0 hPa 8.6 m/s 29.2 mm 17.8° 1015.0 hPa 8.6 m/s 29.2 mm
20:00 17.7° 1015.5 hPa 7.5 m/s 29.4 mm 17.7° 1015.5 hPa 7.5 m/s 29.4 mm
 04:38     21:53    Daglengte: 17:15 Woensdag 06 Jul
02:00 15.7° 1016.6 hPa 3.5 m/s 0.3 mm
08:00 16.5° 1016.6 hPa 3.4 m/s 0.2 mm
14:00 19.3° 1016.8 hPa 3.5 m/s 0.4 mm
20:00 18.9° 1016.0 hPa 2.7 m/s 0.4 mm
 04:39     21:52    Daglengte: 17:13 Donderdag 07 Jul
02:00 16.2° 1015.9 hPa 2.4 m/s 0.2 mm
08:00 16.5° 1015.5 hPa 1.9 m/s 0.3 mm
14:00 19.3° 1015.6 hPa 2.6 m/s 0.6 mm
20:00 18.9° 1015.0 hPa 2.1 m/s 0.7 mm
 04:40     21:51    Daglengte: 17:11 Vrijdag 08 Jul
02:00 15.8° 1015.3 hPa 1.8 m/s 0.6 mm
08:00 16.5° 1014.9 hPa 2.7 m/s 1.0 mm
14:00 19.3° 1014.9 hPa 2.9 m/s 0.3 mm
20:00 18.6° 1014.4 hPa 2.8 m/s 0.7 mm
 04:41     21:50    Daglengte: 17:09 Zaterdag 09 Jul
02:00 15.7° 1014.7 hPa 3.3 m/s 0.6 mm
08:00 16.5° 1014.6 hPa 3.0 m/s 0.3 mm
14:00 19.3° 1014.2 hPa 4.0 m/s 0.6 mm
20:00 18.6° 1013.3 hPa 2.8 m/s 0.3 mm
 04:43     21:49    Daglengte: 17:06 Zondag 10 Jul
02:00 15.9° 1013.1 hPa 2.3 m/s 0.3 mm
08:00 16.7° 1012.5 hPa 2.7 m/s 0.3 mm
14:00 19.0° 1012.3 hPa 3.3 m/s 0.2 mm
20:00 18.5° 1011.9 hPa 3.0 m/s 0.8 mm
 04:44     21:48    Daglengte: 17:04 Maandag 11 Jul
02:00 15.9° 1012.1 hPa 3.8 m/s 0.7 mm
FMI Hirlam - 7.5 km EWN WRFDA - 12 km DWD ICON - 7 km GFS - 25 km Basiskaart






























































Updatetijd (Europe/Amsterdam) Resolutie Lengte Stap
FMI Hirlam 01:45, 07:45, 13:45, 19:45 7.5 km 49h 1h
EWN WRFDA 22:30, 04:30, 10:30, 16:30 12 km 73h 1h
DWD ICON 23:45, 05:45, 11:45, 17:45 7 km 75h 1h
GFS 02:15, 08:15, 14:15, 20:15 25 km 237h 3h
30+ mm
25-30 mm
20-25 mm
15-20 mm
10-15 mm
6-10 mm
4-6 mm
2-4 mm
1-2 mm
0.5-1 mm
0.2-0.5 mm
0.1-0.2 mm
30+ mm
25-30 mm
20-25 mm
15-20 mm
10-15 mm
6-10 mm
4-6 mm
2-4 mm
1-2 mm
0.5-1 mm
0.2-0.5 mm
0.1-0.2 mm
Sneeuwval
Natte sneeuw
Hagel
Vorst
30+ mm
25-30 mm
20-25 mm
15-20 mm
10-15 mm
6-10 mm
4-6 mm
2-4 mm
1-2 mm
0.5-1 mm
0.2-0.5 mm
0.1-0.2 mm
Sneeuwval
Natte sneeuw
Hagel
Vorst
Onweer
50 mm
40 mm
30 mm
26 mm
22 mm
18 mm
14 mm
10 mm
9 mm
8 mm
7 mm
6 mm
5 mm
4.5 mm
4 mm
3.5 mm
3 mm
2.5 mm
2 mm
1.5 mm
1 mm
0.8 mm
0.6 mm
0.4 mm
0.2 mm
0.05 mm
35°
30°
25°
20°
15°
10°
-5°
-10°
-15°
-20°
-25°
-30°
-35°
33> m/s
29 m/s
25 m/s
21 m/s
17 m/s
14 m/s
11 m/s
8 m/s
5 m/s
3 m/s
0 m/s
2600 J/kg
2400 J/kg
2200 J/kg
2000 J/kg
1800 J/kg
1600 J/kg
1400 J/kg
1200 J/kg
1000 J/kg
800 J/kg
600 J/kg
400 J/kg
200 J/kg
70 dBZ
65 dBZ
60 dBZ
55 dBZ
5